Location: �pinoy
(50.4834°N, 2.9446°E)
Time: 02:27:58
(UTC+00:00)

Daily predictions for brighter satellites

Satellite Brightness Start Highest point End
(mag) Time Altitude Azimuth Time Altitude Azimuth Time Altitude Azimuth
SL-16 R/B 4.4 02:44:16 21° ENE 02:44:16 21° ENE 02:47:02 10° E
CZ-4C R/B 4.3 02:52:33 24° NNE 02:52:33 24° NNE 02:55:17 10° NE
Cosmos 2322 Rocket 4.2 02:51:14 23° ENE 02:51:14 23° ENE 02:54:40 10° E
Lacrosse 5 4.3 03:00:40 19° ENE 03:00:40 19° ENE 03:02:07 10° ENE
COSMOS 2455 4.2 03:06:44 35° E 03:06:44 35° E 03:10:40 10° ESE
NOSS 3-4 (A) 4.5 03:15:02 46° NNE 03:15:15 46° NNE 03:22:22 10° ESE
NOSS 3-4 (C) 4.5 03:15:07 46° NNE 03:15:21 46° NNE 03:22:26 10° ESE
SL-4 R/B 3.8 03:48:12 35° ESE 03:48:12 35° ESE 03:51:01 10° ESE
Cosmos 967 Rocket 4.4 03:51:46 81° ENE 03:51:46 81° ENE 03:57:57 10° NE
Cosmos 1447 Rocket 4.5 03:47:39 10° N 03:54:04 84° E 04:00:26 10° S
H-2A R/B 4.1 03:49:47 10° NNE 03:52:43 35° NE 03:52:43 35° NE
Cosmos 839 Rocket 4.0 03:54:08 82° S 03:54:23 85° SE 04:00:36 10° NE
ATLAS 2AS CENTAUR R/B 2.9 03:53:41 54° NNW 03:55:36 77° NE 04:02:49 10° SE
Cosmos 2082 Rocket 2.8 03:58:26 48° N 03:58:26 48° N 04:02:35 10° NNE
ADEOS 4.5 03:56:31 10° NNE 03:59:50 40° NNE 03:59:50 40° NNE
Cosmos 1833 Rocket 3.7 04:09:16 33° N 04:09:16 33° N 04:12:42 10° NNE
SJ 16-02 2.4 04:10:01 39° NE 04:10:01 39° NE 04:12:54 10° NNE
Cosmos 1898 Rocket 3.5 04:11:59 79° SE 04:12:03 80° ESE 04:17:23 10° NNE
Okean 3 Rocket 4.4 04:10:45 10° SSE 04:15:06 50° E 04:19:27 10° NNE
Cosmos 1937 Rocket 3.7 04:16:38 44° S 04:18:10 67° ESE 04:23:17 10° NNE
COSMO-SKYMED 1 3.8 04:14:50 10° SE 04:18:54 41° ENE 04:21:53 17° N
USA 234 3.6 04:16:09 10° ENE 04:22:26 51° N 04:23:58 43° NW
Cosmos 2360 Rocket 2.9 04:19:52 24° N 04:23:02 50° NE 04:28:33 10° SE
Cosmos 1153 Rocket 4.3 04:17:53 10° S 04:24:01 85° W 04:30:13 10° N
Cosmos 2173 Rocket 4.4 04:20:58 10° S 04:27:07 64° E 04:33:12 10° NNE
SL-16 R/B 2.0 04:26:12 63° NW 04:27:08 80° WSW 04:32:49 10° SSE
Cosmos 1605 Rocket 4.0 04:30:52 53° WNW 04:30:52 53° WNW 04:36:25 10° N
Cosmos 2322 Rocket 2.0 04:33:07 48° NW 04:34:45 81° WSW 04:40:26 10° SSE
Cosmos 858 Rocket 4.3 04:33:34 44° SSW 04:35:15 88° WNW 04:40:30 10° NNE
CZ-4C R/B 3.7 04:37:45 24° NNW 04:39:15 27° N 04:45:02 10° NE
Lacrosse 5 2.0 04:39:53 53° NW 04:40:12 54° NNW 04:45:13 10° ENE
PAYLOAD A 4.0 04:35:43 10° N 04:41:02 67° WNW 04:43:42 30° SW
ALOS 4.1 04:37:02 10° NNE 04:41:14 32° E 04:45:25 10° SSE
STARLINK-29 4.0 04:43:24 45° NE 04:43:24 45° NE 04:46:10 10° ENE
BREEZE-M DEB (TANK) 3.0 04:48:05 35° ESE 04:48:05 35° ESE 04:49:20 10° E
STARLINK-80 3.3 04:48:37 86° SSE 04:48:37 86° SSE 04:52:28 10° ENE
MSX 4.0 04:45:10 10° N 04:50:41 49° WNW 04:52:21 38° WSW
COSMOS 2455 3.0 04:49:55 43° W 04:50:59 48° WSW 04:56:42 10° S
Cosmos 2228 Rocket 4.5 04:46:39 10° N 04:51:00 40° ENE 04:55:19 10° SE
FALCON 9 DEB 3.7 04:51:55 51° NNE 04:51:55 51° NNE 04:54:57 10° ENE
Okean O Rocket 3.5 04:47:56 10° NNE 04:51:48 30° E 04:55:40 10° SSE
CZ-2C R/B 2.3 04:47:22 10° N 04:52:12 61° WNW 04:54:15 32° SW
Cosmos 1151 Rocket 3.0 04:49:35 16° N 04:53:02 85° E 04:57:23 10° S
IDEFIX/ARIANE 42P 3.9 04:48:50 10° N 04:51:24 24° NNW 04:51:24 24° NNW
Cosmos 1933 4.1 04:50:50 10° N 04:54:47 51° ENE 04:58:41 10° SSE
ATLAS CENTAUR R/B 2.3 04:55:54 10° SSW 05:00:44 59° SE 05:05:25 10° NE
Cosmos 1328 Rocket 3.3 04:58:10 21° NNW 05:01:01 75° W 05:05:18 10° S
Lacrosse 5 rocket 1.5 05:00:34 44° N 05:01:08 49° NNE 05:04:38 10° E
STARLINK-75 4.4 05:00:36 26° SSW 05:02:35 48° SSE 05:06:35 10° ENE
Cosmos 1515 Rocket 3.6 05:00:20 10° N 05:04:42 77° E 05:09:02 10° SSE
ASTEX 1 4.2 05:00:27 10° SSW 05:09:44 10° NNW 05:03:46 32° WSW
Cosmos 2322 4.2 05:00:06 13° NNW 05:05:08 61° NE 05:10:44 10° SE
STARLINK-43 3.3 05:05:21 59° WNW 05:05:49 68° NNW 05:09:32 10° ENE
NOSS 3-4 (A) 3.8 05:02:30 27° NW 05:06:33 65° SW 05:14:05 10° SSE
NOSS 3-4 (C) 3.8 05:02:36 27° NW 05:06:40 65° SW 05:14:12 10° SSE
Cosmos 1606 3.3 05:03:11 10° N 05:06:56 56° ENE 05:10:42 10° SSE
SKYMED 2 3.4 05:02:39 10° S 05:06:59 71° WSW 05:10:34 15° NNW
Cosmos 1892 3.3 05:08:41 37° NNW 05:08:41 37° NNW 05:11:21 10° N
Cosmos 1459 Rocket 3.9 05:01:52 10° SSW 05:08:03 70° WNW 05:14:24 10° N
COSMOS 2487 2.8 05:04:39 10° S 05:08:04 64° ESE 05:11:31 10° NNE
STARLINK-37 4.4 05:06:49 22° SW 05:09:11 49° SSE 05:13:13 10° ENE
STARLINK-55 4.4 05:07:01 21° SSW 05:09:26 48° SSE 05:13:26 10° ENE
CZ-4B R/B 4.3 05:05:19 10° NNE 05:10:32 47° E 05:15:49 10° S
STARLINK-34 4.4 05:08:42 21° SW 05:11:08 50° SSE 05:15:09 10° ENE
STARLINK-24 4.3 05:09:21 21° SW 05:11:50 50° SSE 05:15:52 10° ENE
Cosmos 1743 Rocket 4.4 05:08:07 10° S 05:12:18 50° E 05:16:30 10° NNE
Cosmos 990 Rocket 4.4 05:11:08 34° W 05:12:28 40° WNW 05:17:24 10° NNE
STARLINK-81 4.4 05:09:59 19° SW 05:12:37 48° SSE 05:16:38 10° ENE
Cosmos 2219 Rocket 3.2 05:07:43 10° NNW 05:13:10 45° NE 05:18:34 10° SE
Cosmos 2333 Rocket 3.1 05:08:06 10° NNW 05:13:41 47° NE 05:19:14 10° SE
STARLINK-77 4.4 05:13:11 19° SW 05:15:55 50° SSE 05:19:56 10° ENE
Meteor 1-31 Rocket 3.2 05:12:24 10° N 05:15:45 38° WNW 05:15:45 38° WNW
STARLINK-25 4.3 05:14:52 18° SW 05:17:40 51° SSE 05:21:43 10° ENE
NOSS 3-3 (A) 4.1 05:14:05 25° WSW 05:17:41 57° NW 05:24:31 10° NE
NOSS 3-3 (C) 4.1 05:14:11 25° WSW 05:17:47 57° NW 05:24:39 10° NE
Cosmos 1725 Rocket 4.1 05:12:13 10° S 05:18:29 83° E 05:24:51 10° N
Cosmos 1048 Rocket 4.0 05:14:16 14° NNW 05:18:56 75° WSW 05:24:15 10° SSE
Cosmos 2016 Rocket 3.9 05:13:08 10° SSW 05:19:25 81° WNW 05:25:49 10° N
STARLINK-71 4.2 05:16:46 20° SW 05:19:30 56° SSE 05:23:34 10° ENE
STARLINK-79 4.2 05:17:56 18° SW 05:20:50 54° SSE 05:24:53 10° ENE
CZ-4B R/B 4.5 05:16:38 10° N 05:20:52 41° WNW 05:25:04 10° SW
Cosmos 2298 Rocket 3.9 05:15:40 10° SSW 05:20:59 82° WNW 05:26:20 10° NNE
Cosmos 1484 Rocket 2.7 05:17:29 10° N 05:21:30 67° WNW 05:25:28 10° SSW
Cosmos 1825 2.0 05:17:56 10° S 05:21:42 87° W 05:25:31 10° N
STARLINK-78 4.2 05:19:36 17° SW 05:22:35 55° SSE 05:26:39 10° ENE
STARLINK-48 3.4 05:21:14 35° W 05:22:45 80° NNW 05:26:41 10° ENE
Cosmos 1782 4.2 05:20:43 10° N 05:24:30 39° ENE 05:28:15 10° SE
SL-4 R/B 3.2 05:23:49 26° WSW 05:25:39 36° SW 05:30:02 10° SSE
STARLINK-49 4.1 05:22:47 17° SW 05:25:52 57° SSE 05:29:57 10° ENE
Cosmos 2151 3.4 05:22:07 10° SW 05:26:10 40° WNW 05:30:16 10° N
STARLINK-27 4.1 05:24:24 16° SW 05:27:33 58° SSE 05:31:38 10° ENE
Abrixas rocket 3.5 05:26:23 17° SSW 05:28:06 31° SSE 05:30:50 10° E
Cosmos 1408 Rocket 3.5 05:23:53 10° SSW 05:28:09 61° WNW 05:32:29 10° N
STARLINK-67 4.3 05:28:57 20° SSW 05:28:57 20° SSW 05:30:45 10° SSE
STARLINK-74 4.1 05:25:59 16° SW 05:29:11 60° SSE 05:33:17 10° ENE
H-2A R/B 3.7 05:25:44 10° N 05:29:16 25° WNW 05:29:16 25° WNW
STARLINK-39 4.0 05:27:36 15° SW 05:30:52 61° SSE 05:34:58 10° ENE
STARLINK 4.0 05:29:12 15° SW 05:32:31 62° SSE 05:36:38 10° ENE
STARLINK-42 3.9 05:29:56 15° SW 05:33:12 65° SSE 05:37:19 10° ENE
Helios 1A Rocket 3.1 05:29:12 10° NNE 05:33:20 76° ESE 05:37:24 10° S
Cosmos 1500 Rocket 3.7 05:30:58 10° S 05:35:25 78° E 05:39:53 10° NNE
STARLINK-21 3.9 05:32:18 14° SW 05:35:44 65° SSE 05:39:52 10° ENE
Cosmos 1816 Rocket 4.5 05:29:57 10° NNW 05:36:13 66° W 05:42:23 10° S
PAYLOAD B 4.2 05:30:49 10° NNE 05:36:22 87° WNW 05:41:52 10° SSW
STARLINK-45 3.8 05:34:35 15° WSW 05:37:56 71° SSE 05:42:04 10° ENE
Meteor 1-26 Rocket 4.2 05:32:25 10° NNW 05:38:11 85° W 05:43:45 10° S
Cosmos 1400 Rocket 2.7 05:35:09 10° NNW 05:39:15 80° W 05:43:16 10° S
Tsikada Rocket 4.0 05:33:23 10° NNW 05:39:43 66° W 05:45:58 10° S
STARLINK-76 3.9 05:37:12 13° SW 05:40:49 69° SSE 05:44:57 10° ENE
Cosmos 2100 Rocket 4.4 05:36:13 10° SW 05:41:57 39° WNW 05:47:42 10° N
Cosmos 2082 Rocket 3.5 05:40:19 18° WNW 05:41:58 20° NW 05:46:08 10° NNE
STARLINK 3.8 05:38:49 13° WSW 05:42:30 70° SSE 05:46:38 10° ENE
SL-16 R/B 4.3 05:39:11 10° N 05:43:16 20° NE 05:47:20 10° E
Cosmos 1437 2.5 05:40:22 10° SSW 05:43:23 61° WNW 05:46:27 10° N
STARLINK-32 3.8 05:40:23 12° WSW 05:44:08 72° SSE 05:48:17 10° ENE
Cosmos 1766 Rocket 4.3 05:40:53 10° SW 05:44:42 30° WNW 05:48:34 10° N
Gbstr 26 Del rocket 2.6 05:43:06 22° W 05:45:24 73° N 05:49:09 10° E
CZ-4B DEB 4.1 05:40:10 10° NNE 05:45:37 68° WNW 05:51:03 10° SSW
STARLINK-40 3.8 05:42:00 12° WSW 05:45:48 73° SSE 05:49:56 10° ENE
CZ-4B R/B 3.9 05:43:11 10° NNW 05:45:50 21° WNW 05:45:50 21° WNW
ATLAS 2AS CENTAUR R/B 3.6 05:41:10 17° WNW 05:45:59 33° WSW 05:52:06 10° S
SL-08 R/B 4.4 05:40:30 10° SSW 05:46:32 62° WNW 05:52:35 10° N
STARLINK-44 3.8 05:43:34 12° WSW 05:47:24 74° SSE 05:51:33 10° ENE
SJ 16-02 2.7 05:47:03 19° WNW 05:47:35 19° NW 05:50:45 10° N
STARLINK-36 3.8 05:45:12 11° WSW 05:49:08 75° SSE 05:53:17 10° ENE
Cosmos 1833 Rocket 4.4 05:50:59 13° NW 05:52:42 15° NNW 05:55:48 10° N
COSMO-SKYMED 1 3.6 05:51:37 10° SSW 05:55:13 25° W 05:58:51 10° NW
STARLINK-60 3.1 05:53:15 20° WNW 05:55:29 72° NNE 05:58:50 10° E
STARLINK-35 3.7 05:51:34 10° WSW 05:55:43 81° SSE 05:59:52 10° ENE
STARLINK-51 3.7 05:53:16 10° WSW 05:57:25 82° SSE 06:01:35 10° ENE
Cosmos 1408 3.6 05:55:22 10° SW 05:58:27 25° WNW 06:01:33 10° NNW
STARLINK-30 3.7 05:54:59 10° WSW 05:59:08 83° SSE 06:03:18 10° ENE
Cosmos 1269 Rocket 4.0 05:54:51 10° NNW 06:00:09 71° WSW 06:05:25 10° SSE
Cosmos 972 Rocket 4.2 05:55:05 10° SSW 06:00:14 88° ESE 06:06:01 10° NNE
STARLINK-33 3.6 05:56:36 10° WSW 06:00:45 84° SSE 06:04:55 10° ENE
Cosmos 1802 Rocket 4.5 05:54:51 10° SW 06:00:47 39° WNW 06:06:45 10° N
STARLINK-61 3.5 05:58:13 12° WSW 06:01:57 79° NNW 06:06:00 10° ENE
STARLINK-50 3.6 05:58:14 10° WSW 06:02:24 86° SSE 06:06:34 10° ENE
Cosmos 494 Rocket 4.1 05:57:32 10° NNW 06:02:43 58° WSW 06:07:49 10° S
STARLINK-26 3.6 05:59:03 10° WSW 06:03:09 88° NNW 06:07:16 10° ENE
USA 234 3.6 05:58:33 10° E 06:04:58 60° NNE 06:11:18 10° WNW
COSMOS 2428 2.7 05:59:49 10° NNW 06:05:34 87° WSW 06:11:19 10° SSE
STARLINK-56 3.6 06:01:35 10° WSW 06:05:45 88° SSE 06:09:54 10° ENE
Okean-O 4.5 06:02:34 10° NNE 06:06:40 35° E 06:10:45 10° SSE
Cosmos 2360 Rocket 2.9 06:01:49 10° NW 06:06:52 34° WSW 06:11:54 10° S
STARLINK-52 3.3 06:04:22 15° WNW 06:07:12 67° NNE 06:10:42 10° E
Starlink (trailer) 3.6 06:03:26 10° WSW 06:07:36 89° SSE 06:11:46 10° ENE
STARLINK-38 3.6 06:04:54 10° WSW 06:09:04 89° N 06:13:14 10° ENE
ADEOS Rocket 3.8 06:01:22 10° SSE 06:09:05 78° ENE 06:16:20 10° NNW
Iridium 82 4.4 06:05:33 10° N 06:09:06 80° W 06:12:43 10° S
SL-16 R/B 3.8 06:08:08 12° WNW 06:10:20 15° W 06:13:20 10° SW
STARLINK-65 3.6 06:06:35 10° WSW 06:10:45 88° NNW 06:14:54 10° ENE
Cosmos 1833 4.1 06:05:10 10° SW 06:10:46 72° WNW 06:16:26 10° NNE
Cosmos 2251 Rocket 4.4 06:06:06 10° NNW 06:11:15 50° ENE 06:16:20 10° SE
Cosmos 2237 Rocket 3.1 06:05:48 10° NNW 06:11:21 49° NE 06:16:50 10° SE
CZ-4 R/B 4.3 06:08:49 10° NE 06:11:38 19° E 06:14:25 10° SE
STARLINK-46 4.0 06:13:08 12° W 06:15:29 30° SW 06:18:08 10° SSE
SOZ 4.0 06:11:48 10° W 06:15:29 67° N 06:17:35 10° ENE
STARLINK-69 3.6 06:11:35 10° WSW 06:15:44 84° NNW 06:19:54 10° ENE
NOSS 0 Rocket 4.2 06:10:45 10° NNW 06:17:03 75° ENE 06:23:17 10° SE
STARLINK-66 3.6 06:13:10 10° WSW 06:17:19 84° NNW 06:21:29 10° ENE
Cosmos 2322 Rocket 3.8 06:14:58 10° WNW 06:17:54 15° W 06:20:58 10° SW
Timation 2 Rocket 4.3 06:12:24 10° SSW 06:18:23 69° ESE 06:24:20 10° NE
ALOS 2.8 06:14:25 10° N 06:18:42 37° WNW 06:22:59 10° SW
Meteor 1-10 Rocket 4.4 06:13:14 10° N 06:18:51 81° ENE 06:24:31 10° SSE
Cosmos 1125 Rocket 3.6 06:13:42 10° SW 06:18:54 57° WNW 06:24:06 10° NNE
STARLINK-41 3.6 06:14:51 10° WSW 06:19:01 83° NNW 06:23:11 10° ENE
STARLINK-29 3.2 06:16:52 11° WNW 06:20:10 77° NNE 06:23:40 10° ESE
STARLINK-64 3.6 06:16:34 10° WSW 06:20:42 82° NNW 06:24:53 10° ENE
RESURS DK-1 2.6 06:17:59 10° NNW 06:22:08 71° ENE 06:26:16 10° SE
STARLINK-70 3.6 06:18:09 10° WSW 06:22:19 81° NNW 06:26:29 10° ENE
Radarsat Rocket 3.9 06:17:08 10° NNE 06:22:59 80° WNW 06:28:55 10° SSW
Cosmos 1238 Rocket 4.1 06:16:47 10° SSW 06:23:04 53° WNW 06:28:41 10° N
Cosmos 1633 3.1 06:19:57 10° S 06:23:32 64° E 06:27:10 10° NNE
Lacrosse 5 2.6 06:19:09 10° WNW 06:23:56 40° N 06:28:43 10° ENE
SMAP 3.2 06:19:16 10° NNE 06:23:58 84° ESE 06:28:37 10° SSW
STARLINK-68 3.6 06:19:58 10° WSW 06:24:08 79° NNW 06:28:18 10° ENE
STARLINK-58 3.6 06:21:19 10° WSW 06:25:28 79° NNW 06:29:37 10° ENE
Cosmos 2233 Rocket 4.2 06:20:08 10° SSW 06:26:16 53° WNW 06:32:28 10° N
STARLINK-80 3.7 06:23:22 10° W 06:27:10 57° N 06:30:58 10° E
STARLINK-62 3.6 06:23:17 10° WSW 06:27:26 77° NNW 06:31:36 10° ENE
NOAA 6 4.3 06:22:51 10° N 06:27:43 44° WNW 06:32:32 10° SW
Okean O Rocket 2.2 06:24:16 10° N 06:28:12 34° WNW 06:32:06 10° SW
FALCON 9 DEB 3.1 06:25:24 10° WNW 06:28:51 87° NNE 06:32:18 10° ESE
Cosmos 2228 Rocket 4.2 06:25:12 10° NNW 06:29:01 26° W 06:32:50 10° SW
STARLINK-63 3.6 06:24:53 10° WSW 06:29:02 77° NNW 06:33:11 10° ENE
CZ-2C R/B 4.2 06:27:52 10° NNW 06:29:26 11° NW 06:30:59 10° WNW
CZ-4C R/B 3.8 06:23:49 10° NW 06:29:42 34° NNE 06:36:30 10° E
STARLINK 3.6 06:26:18 10° WSW 06:30:26 79° NNW 06:34:36 10° ENE
STARLINK-72 3.6 06:28:07 10° WSW 06:32:16 77° NNW 06:36:26 10° ENE
STARLINK-59 3.6 06:31:33 10° W 06:35:42 74° NNW 06:39:51 10° ENE
Cosmos 1980 4.0 06:31:09 10° NNW 06:36:51 75° ENE 06:42:31 10° SE
Meteor 2-3 Rocket 4.1 06:32:21 10° SW 06:37:50 44° WNW 06:43:24 10° N
